Retour au catalogue

STARLINK-37830

ActifCommunicationsSSO
NORAD 69664·PAYLOAD·🇺🇸 United States

Lancé Jun 21, 2026 depuis Vandenberg Space Force Base

Loading…

Prochains Passages (prochaines 24 heures)

TLE

FraisSource: CelesTrak SupGP

Époque: Sep 15, 2026, 04:30 UTC

1 69664C 26143R   26258.18798611 -.00050881  00000+0 -15796-2 0  2582
2 69664  97.2840 301.3908 0001132  90.8299 294.6160 15.33461762    18

Suivez STARLINK-37830 en temps réel avec AllMySat

Download on the App Store